| time (UTC) | temp F | wind direction | speed MPH | gust MPH | rain 1hr in | rain 24hr in | rain mn in | humidity % | barometer mb |
| 20260504130324 | 57 | 360 | 2.0 | 4.0 | 0.00 | 0.00 | 0.00 | 50 | 1013.1 |
| 20260504081824 | 43 | 360 | 0.0 | 0.0 | 0.00 | 0.00 | 0.00 | 74 | 1012.7 |
| 20260504070224 | 43 | 360 | 0.0 | 0.0 | 0.00 | 0.00 | 0.00 | 73 | 1012.3 |
| 20260504044924 | 43 | 360 | 0.0 | 0.0 | 0.00 | 0.00 | 0.00 | 75 | 1012.2 |
| 20260504043024 | 43 | 360 | 0.0 | 0.0 | 0.00 | 0.00 | 0.00 | 73 | 1012.0 |
| 20260504041124 | 44 | 360 | 0.0 | 0.0 | 0.00 | 0.00 | 0.00 | 72 | 1011.8 |
| 20260504035620 | 44 | 360 | 0.0 | 0.0 | 0.00 | 0.03 | 0.00 | 70 | 1011.7 |
| 20260504033740 | 44 | 360 | 0.0 | 0.0 | 0.00 | 0.03 | 0.00 | 68 | 1011.7 |
| 20260504031820 | 45 | 360 | 0.0 | 0.0 | 0.00 | 0.03 | 0.00 | 67 | 1011.7 |
| 20260504025920 | 46 | 360 | 0.0 | 0.0 | 0.00 | 0.03 | 0.00 | 65 | 1011.7 |
| 20260504024020 | 47 | 360 | 0.0 | 0.0 | 0.00 | 0.03 | 0.00 | 61 | 1011.7 |
| 20260504022120 | 48 | 360 | 0.0 | 0.0 | 0.00 | 0.03 | 0.00 | 59 | 1011.7 |
| 20260504020220 | 49 | 360 | 0.0 | 0.0 | 0.00 | 0.03 | 0.00 | 56 | 1011.7 |
| 20260504014320 | 50 | 360 | 0.0 | 0.0 | 0.00 | 0.03 | 0.00 | 53 | 1011.5 |
| 20260504012420 | 52 | 360 | 0.0 | 0.0 | 0.00 | 0.03 | 0.00 | 50 | 1011.4 |
| 20260504010520 | 53 | 360 | 0.0 | 0.0 | 0.00 | 0.03 | 0.00 | 46 | 1011.2 |
| 20260504004700 | 55 | 360 | 0.0 | 0.0 | 0.00 | 0.03 | 0.00 | 43 | 1010.9 |
| 20260504002720 | 56 | 360 | 0.0 | 2.0 | 0.00 | 0.03 | 0.00 | 40 | 1010.7 |
| 20260504000820 | 58 | 360 | 0.0 | 2.0 | 0.00 | 0.03 | 0.00 | 35 | 1010.4 |
| 20260503235000 | 59 | 360 | 0.0 | 2.0 | 0.00 | 0.03 | 0.00 | 33 | 1010.2 |
| 20260503233020 | 59 | 360 | 2.0 | 2.0 | 0.00 | 0.03 | 0.00 | 31 | 1009.9 |
| 20260503231140 | 60 | 360 | 3.0 | 5.0 | 0.00 | 0.03 | 0.00 | 29 | 1009.7 |
| 20260503225220 | 60 | 360 | 4.0 | 10.0 | 0.00 | 0.03 | 0.00 | 29 | 1009.6 |
| 20260503223320 | 60 | 360 | 4.0 | 6.0 | 0.00 | 0.03 | 0.00 | 29 | 1009.5 |
| 20260503221420 | 60 | 360 | 10.0 | 12.0 | 0.00 | 0.03 | 0.00 | 28 | 1009.5 |
| 20260503215520 | 59 | 360 | 4.0 | 12.0 | 0.00 | 0.03 | 0.00 | 28 | 1009.6 |
| 20260503213620 | 60 | 360 | 10.0 | 10.0 | 0.00 | 0.03 | 0.00 | 29 | 1009.5 |
| 20260503211720 | 59 | 360 | 7.0 | 14.0 | 0.00 | 0.03 | 0.00 | 28 | 1009.4 |
| 20260503205820 | 60 | 360 | 10.0 | 13.0 | 0.00 | 0.03 | 0.00 | 29 | 1009.5 |
| 20260503203920 | 59 | 360 | 3.0 | 10.0 | 0.00 | 0.03 | 0.00 | 29 | 1009.5 |
| 20260503202020 | 58 | 360 | 3.0 | 16.0 | 0.00 | 0.03 | 0.00 | 30 | 1009.5 |
| 20260503200120 | 59 | 360 | 15.0 | 15.0 | 0.00 | 0.03 | 0.00 | 32 | 1009.7 |
| 20260503194220 | 58 | 360 | 2.0 | 11.0 | 0.00 | 0.03 | 0.00 | 33 | 1009.7 |
| 20260503192320 | 57 | 360 | 6.0 | 14.0 | 0.00 | 0.03 | 0.00 | 32 | 1010.0 |
| 20260503190423 | 56 | 360 | 8.0 | 10.0 | 0.00 | 0.03 | 0.00 | 34 | 1010.2 |
| 20260503184520 | 55 | 360 | 10.0 | 11.0 | 0.00 | 0.03 | 0.00 | 36 | 1010.4 |
| 20260503182620 | 55 | 360 | 5.0 | 18.0 | 0.00 | 0.03 | 0.00 | 36 | 1010.5 |
| 20260503180720 | 54 | 360 | 4.0 | 18.0 | 0.00 | 0.03 | 0.00 | 37 | 1010.5 |
| 20260503174840 | 53 | 360 | 4.0 | 16.0 | 0.00 | 0.03 | 0.00 | 39 | 1010.7 |
| 20260503172919 | 53 | 360 | 7.0 | 17.0 | 0.00 | 0.03 | 0.00 | 40 | 1010.8 |
| 20260503171019 | 53 | 360 | 5.0 | 17.0 | 0.00 | 0.03 | 0.00 | 37 | 1011.0 |